EHI
0 0 0 0 0 0 0 0 0 0 0 0 0 0 0 0 0 0 0 0 0 0 0 0 0 0 0 0 0 0 0 0 0 0 0 0 0 0 0 0 0 0 0
0 0 0 0 0 0 0 0 0 0 0 0 0 0 0 0 0 0 0 0 0 0 0 0 0 0 0 0 0 0 0 0 0 0 0 0 0 0 0 0 0 0 0
0 0 0 0 0 0 0 0 0 0 0 0 0 0 0 0 0 0 0 0 0 0 0 0 0 0 0 0 0 0 0 0 0 0 0 0 0 0 0 0 0 0 0
0 0 0 0 0 0 0 0 0 0 0 0 0 0 0 0 0 0 0 0 0 0 0 0 0 0 0 0 0 0 0 0 0 0 0 0 0 0 0 0 0 0 0
0 0 0 0 0 0 0 0 0 0 0 0 0 0 0 0 0 0 0 0 0 0 0 0 0 0 0 0 0 0 0 0 0 0 0 0 0 0 0 0 0 0 0
0 0 0 0 0 0 0 0 0 0 0 0 0 0 0 0 0 0 0 0 0 0 0 0 0 0 0 0 0 0 0 0 0 0 0 0 0 0 0 0 0 0 0
0 0 0 0 0 0 0 0 0 0 0 0 0 0 0 0 0 0 0 0 0 0 0 0 0 0 0 0 0 0 0 0 0 0 0 0 0 0 0 0 0 0 0
0 0 0 0 0 0 0 0 0 0 0 0 0 0 0 0 0 0 0 0 0 0 0 0 0 0 0 0 0 0 0 0 0 0 0 0 0 0 0 0 0 0 0
0 0 0 0 0 0 0 0 0 0 0 0 0 0 0 0 0 0 0 0 0 0 0 0 0 0 0 0 0 0 0 0 0 0 0 0 0 0 0 0 0 0 0
0 0 0 0 0 0 0 0 0 0 0 0 0 0 0 0 0 0 0 0 0 0 0 0 0 0 0 0 0 0 0 0 0 0 0 0 0 0 0 0 0 0 0
0 0 0 0 0 0 0 0 0 0 0 0 0 0 0 0 0 0 0 0 0 0 0 0 0 0 0 0 0 0 0 0 0 0 0 0 0 0 0 0 0 0 0
0 0 0 0 0 0 0 0 0 0 0 0 0 0 0 0 0 0 0 0 0 0 0 0 0 0 0 0 0 0 0 0 0 0 0 0 0 0 0 0 0 0 0
0 0 0 0 0 0 0 0 0 0 0 0 0 0 0 0 0 0 0 0 0 0 0 0 0 0 0 0 0 0 0 0 0 0 0 0 0 0 0 0 0 0 0
0 0 0 0 0 0 0 0 0 0 0 0 0 0 0 0 0 0 0 0 0 0 0 0 0 0 0 0 0 0 0 0 0 0 0 0 0 0 0 0 0 0 0
0 0 0 0 0 0 0 0 0 0 0 0 0 0 0 0 0 0 0 0 0 0 0 0 0 0 0 0 0 0 0 0 0 0 0 0 0 0 0 0 0 0 0
0 0 0 0 0 0 0 0 0 0 0 0 0 0 0 0 0 0 0 0 0 0 0 0 0 0 0 0 0 0 0 0 0 0 0 0 0 0 0 0 0 0 0
0 0 0 0 0 0 0 0 0 0 0 0 0 0 0 0 0 0 0 0 0 0 0 0 0 0 0 0 0 0 0 0 0 0 0 0 0 0 0 0 0 0 0
0 0 0 0 0 0 0 0 0 0 0 0 0 0 0 0 0 0 0 0 0 0 0 0 0 0 0 0 0 0 0 0 0 0 0 0 0 0 0 0 0 0 0
0 0 0 0 0 0 0 0 0 0 0 0 0 0 0 0 0 0 0 0 0 0 0 0 0 0 0 0 0 0 0 0 0 0 0 0 0 0 0 0 0 0 0
0 0 0 0 0 0 0 0 0 0 0 0 0 0 0 0 0 0 0 0 0 0 0 0 0 0 0 0 0 0 0 0 0 0 0 0 0 0 0 0 0 0 0
0 0 0 0 0 0 0 0 0 0 0 0 0 0 0 0 0 0 0 0 0 0 0 0 0 0 0 0 0 0 0 0 0 0 0 0 0 0 0 0 0 0 0
0 0 0 0 0 0 0 0 0 0 0 0 0 0 0 0 0 0 0 0 0 0 0 0 0 0 0 0 0 0 0 0 0 0 0 0 0 0 0 0 0 0 0
0 0 0 0 0 0 0 0 0 0 0 0 0 0 0 0 0 0 0 0 0 0 0 0 0 0 0 0 0 0 0 0 0 0 0 0 0 0 0 0 0 0 0
0 0 0 0 0 0 0 0 0 0 0 0 0 0 0 0 0 0 0 0 0 0 0 0 0 0 0 0 0 0 0 0 0 0 0 0 0 0 0 0 0 0 0
0 0 0 0 0 0 0 0 0 0 0 0 0 0 0 0 0 0 0 0 0 0 0 0 0 0 0 0 0 0 0 0 0 0 0 0 0 0 0 0 0 0 0
0 0 0 0 0 0 0 0 0 0 0 0 0 0 0 0 0 0 0 0 0 0 0 0 0 0 0 0 0 0 0 0 0 0 0 0 0 0 0 0 0 0 0
Wind_Speed
1 0 0 0 0 0 1 1 1 1 2 2 2 2 2 2 2 3 3 7 8 7 7 6 5 5 5 5 6 6 6 6 7 7 7 7 7 7 7 7 8 8 8
1 1 0 1 1 0 0 1 1 1 1 1 2 2 2 2 3 3 3 4 8 8 8 7 6 6 5 5 5 5 6 6 7 7 7 7 7 7 8 8 8 8 9
1 1 1 0 0 0 0 1 1 1 2 2 2 2 2 2 2 3 3 3 4 8 9 8 8 7 6 6 6 6 7 7 7 7 7 8 9 8 8 9 9 9 9
1 1 1 0 0 0 1 1 1 1 2 2 1 1 2 2 2 2 2 3 3 4 6 9 9 9 8 8 8 8 8 8 7 8 7 8 9 9 9 10 10 9 9
1 1 1 0 0 1 1 1 1 1 1 1 1 1 1 1 1 2 2 3 3 3 3 6 9 9 9 9 9 9 9 9 9 9 9 9 9 10 10 10 10 10 10
1 1 0 1 1 1 1 1 1 1 1 1 1 2 1 1 1 1 1 2 2 3 4 4 4 6 10 10 10 10 10 10 10 10 10 10 10 11 11 11 10 11 11
1 1 1 1 1 1 1 2 2 2 1 1 2 2 2 1 1 1 1 1 2 3 3 3 3 3 4 9 10 11 11 11 11 11 11 11 11 11 12 12 12 12 12
1 0 1 1 1 1 1 1 2 2 1 1 1 1 1 2 2 2 1 1 1 2 2 3 2 3 3 2 7 11 12 12 12 12 13 13 13 13 13 13 14 13 13
0 0 1 1 1 1 1 2 2 3 2 1 1 2 1 2 2 2 1 1 1 1 2 2 2 3 3 2 3 7 11 12 12 13 13 14 14 14 14 14 15 15 14
1 0 1 1 1 1 1 1 2 2 3 2 0 0 1 2 1 2 2 1 2 2 2 3 3 3 3 2 4 7 10 12 12 13 13 14 14 15 15 15 15 16 16
1 1 0 1 1 1 1 1 1 2 2 2 2 1 0 0 1 2 3 3 2 2 2 3 2 2 3 2 3 6 10 11 12 12 13 14 15 15 15 16 16 17 17
1 1 0 1 1 1 1 1 1 2 2 2 1 1 1 1 1 2 3 3 3 3 3 2 2 2 2 2 4 8 10 11 12 13 13 14 15 16 16 17 17 17 18
1 2 1 1 1 1 1 1 1 1 2 2 2 2 1 1 1 1 2 2 3 2 2 2 2 2 3 2 4 9 9 11 12 13 14 14 15 16 16 17 17 18 18
2 1 1 1 1 1 1 1 1 1 1 2 2 2 1 1 1 1 2 2 3 3 2 3 2 2 2 3 5 9 6 12 13 14 14 15 15 16 16 17 18 18 18
1 1 1 1 1 1 1 1 1 1 1 1 1 1 1 1 1 1 1 2 2 3 4 3 2 2 3 3 7 5 5 11 13 14 14 15 15 16 16 17 18 18 18
1 1 1 1 1 1 1 1 1 1 1 1 1 1 1 1 1 1 1 2 2 3 5 3 3 4 4 5 8 5 6 12 13 14 15 15 16 16 17 17 17 18 18
1 1 1 1 1 1 1 1 1 1 1 0 0 0 1 1 1 1 1 2 2 3 6 5 3 4 5 6 6 5 5 6 7 13 15 15 16 16 16 17 17 17 18
1 1 1 1 1 1 1 2 1 1 1 1 1 0 1 1 1 2 1 2 3 3 5 7 5 4 5 5 5 6 6 6 6 12 15 15 16 16 16 16 17 17 18
1 1 1 1 1 1 1 1 2 1 1 1 1 1 2 1 2 2 2 3 3 3 4 5 7 4 4 4 5 6 6 5 6 9 12 13 14 15 16 17 17 17 18
1 1 1 1 1 1 1 1 1 1 1 1 1 2 2 2 3 3 3 3 3 3 4 5 6 5 5 4 4 5 6 5 6 6 9 10 12 15 16 17 17 17 18
1 1 1 1 1 1 1 1 1 1 1 1 2 2 2 3 4 3 3 3 3 3 4 4 6 6 5 5 5 4 6 6 6 5 5 6 7 7 8 12 15 17 18
1 1 1 1 1 1 0 1 1 1 1 1 2 2 2 2 4 5 6 6 5 4 5 5 5 7 7 6 6 5 6 6 6 2 4 7 5 7 6 6 13 18 18
1 1 1 1 1 1 0 1 1 1 1 1 2 2 3 3 3 4 5 7 7 7 7 6 7 8 8 7 6 7 6 7 8 5 5 8 5 7 6 8 16 18 18
2 2 1 1 1 1 1 1 1 1 1 2 3 3 4 4 4 4 4 5 5 6 6 6 7 8 7 6 5 6 7 8 7 5 4 7 6 6 7 7 14 17 18
2 2 1 1 1 2 2 2 2 1 1 3 3 3 4 5 7 6 4 6 7 7 7 9 10 10 11 11 7 4 4 5 7 5 3 4 5 7 7 7 9 14 16
2 1 1 1 2 3 3 3 2 1 2 3 3 4 5 7 8 8 5 5 7 8 6 6 7 9 9 9 9 5 5 5 6 6 2 3 4 5 7 5 5 6 8
Wind_Direction
134 116 354 22 14 51 82 73 78 72 65 52 51 57 60 61 50 45 30 32 31 32 33 33 29 25 24 27 23 15 9 9 9 8 4 357 351 347 345 343 339 338 338
134 130 65 36 19 17 114 125 116 106 83 68 54 54 62 59 52 46 33 28 30 28 22 18 17 14 13 13 11 5 4 1 0 359 360 355 346 339 335 331 330 330 328
126 134 119 72 345 17 63 117 103 89 80 67 57 43 50 52 55 49 39 30 23 27 23 17 13 8 4 3 1 0 358 352 351 351 350 349 345 336 328 324 320 319 320
93 125 117 128 299 78 81 88 116 94 69 69 53 30 36 49 60 58 50 35 27 21 19 23 20 13 7 3 360 357 353 348 343 343 341 341 337 334 328 322 315 313 314
63 112 129 164 134 104 93 80 61 117 102 71 60 43 20 39 61 64 57 41 32 24 15 17 18 13 7 2 358 354 351 348 343 340 338 333 330 328 324 320 317 315 313
46 82 80 32 87 105 76 74 65 67 110 102 70 35 2 14 48 62 47 39 31 26 21 14 8 7 9 6 1 355 350 349 346 341 335 332 328 327 324 318 316 317 315
48 104 97 68 75 111 115 113 104 95 60 82 72 26 4 8 41 39 30 40 25 23 24 18 8 359 354 358 355 350 348 348 346 343 340 335 334 331 329 328 320 317 316
345 122 132 138 124 123 111 122 121 130 114 81 103 80 345 337 354 353 15 35 12 6 7 1 354 351 344 345 345 347 343 340 339 336 334 332 331 328 324 325 323 317 315
299 181 163 150 154 156 175 178 154 152 167 184 119 134 159 250 312 316 329 336 348 345 330 329 335 327 336 340 327 336 338 333 332 330 329 328 326 324 322 319 319 316 313
296 225 181 169 167 165 176 191 164 168 159 173 214 217 176 168 191 297 302 301 319 312 301 312 314 310 321 321 324 329 331 327 326 324 323 323 322 319 318 315 314 314 312
331 293 200 172 182 180 179 180 168 166 168 175 183 179 170 259 168 215 276 296 309 286 281 281 285 292 306 308 308 317 322 321 320 319 319 319 317 315 315 313 311 310 311
329 306 235 213 205 187 190 198 192 178 178 176 183 172 166 183 214 216 251 283 290 279 274 268 267 276 290 298 307 316 315 316 317 316 315 314 314 313 312 310 309 309 308
279 259 224 214 214 218 208 187 182 190 180 181 198 206 206 224 215 217 239 274 285 286 275 266 252 270 292 292 296 309 307 311 312 312 311 311 311 310 309 308 307 306 306
241 236 204 202 210 197 190 183 184 202 190 198 214 213 218 238 230 214 221 246 293 290 269 265 272 256 277 281 294 306 299 306 306 307 308 309 308 307 307 307 306 304 303
233 207 184 186 201 193 194 186 188 210 194 202 219 225 225 248 242 252 237 220 231 278 287 264 272 269 281 286 297 293 289 297 301 303 305 306 306 305 304 305 306 305 304
222 149 138 177 191 199 198 188 199 208 190 224 220 218 244 253 248 251 255 261 243 244 269 270 264 279 290 296 299 296 288 298 297 300 302 304 303 303 304 306 306 306 305
179 159 154 136 164 179 165 159 185 169 170 228 272 251 276 277 264 265 265 262 255 247 263 279 276 284 285 292 300 294 289 287 289 296 300 301 303 303 305 305 306 306 306
166 161 134 123 134 163 154 157 177 169 166 195 243 236 276 286 284 278 267 266 263 254 256 276 286 286 281 288 293 293 296 294 288 294 299 301 303 304 306 306 305 306 306
146 118 124 147 171 181 169 167 169 173 182 210 226 229 253 256 272 275 269 268 268 270 261 269 282 283 281 292 299 296 292 289 291 296 301 301 302 305 307 307 307 307 306
147 153 153 174 184 176 164 167 168 182 204 242 256 254 255 245 254 259 264 267 268 268 268 271 280 287 286 292 294 298 301 297 295 298 297 298 302 305 306 307 307 307 305
163 167 150 159 173 175 193 179 184 193 221 258 280 278 278 284 285 279 277 270 264 264 271 274 280 288 290 299 294 295 294 300 291 283 294 292 293 291 294 299 302 302 302
168 150 163 169 177 214 165 178 185 194 233 260 281 291 289 291 294 286 282 282 277 267 269 271 276 279 285 288 291 292 296 305 298 284 295 290 282 284 285 282 294 300 301
179 176 187 182 208 253 259 220 213 196 239 264 274 285 288 294 283 281 285 286 280 278 273 269 273 275 282 285 289 289 286 283 281 291 298 289 283 282 283 289 298 300 301
196 205 205 204 217 280 277 252 236 221 251 270 270 271 274 286 287 285 284 284 280 277 277 268 267 274 280 286 277 281 284 288 285 276 275 283 289 287 292 286 291 295 300
205 213 196 201 227 270 275 263 247 233 259 274 275 275 273 275 286 288 280 279 283 284 285 279 277 280 286 289 294 297 296 296 292 287 261 272 291 302 291 277 280 292 299
206 201 219 229 242 264 283 277 259 238 264 273 275 275 273 276 286 286 269 268 276 282 291 295 285 285 284 284 287 271 269 274 284 286 258 276 291 314 302 279 280 288 292